Погода в Караташе

Турция     36°33′49″N   35°23′00″E
темп.,
°C
ветер,
м/с
пор.,
м/с
влажн.,
%
обл.,
%
осадки,
мм/ч
давл.,
гПа
погр.,
м
11 мая, вт
вт1100:00+22ссз22550 0.0 100843
03:00+21ссв34390 0.0 1008173
06:00+20св34390 0.0 1009194
09:00+21всв33360 0.0 1010252
12:00+22юв33490 0.0 1010201
15:00+23ююз54540 0.0 1009284
18:00+23ююз34630 0.0 1008163
21:00+22юз34650 0.0 100897
12 мая, ср
ср1200:00+22ю11650 0.0 100826
03:00+22ю33656 0.0 1008253
06:00+22зсз12605 0.0 1009210
09:00+22ю12595 0.0 1010299
12:00+22ююз44591 0.0 1010406
15:00+23ююз55610 0.0 1010422
18:00+23юз34690 0.0 1009346
21:00+22ююз33750 0.0 1010193
13 мая, чт
чт1300:00+22ююз22730 0.0 1010294
03:00+21ю21720 0.0 1009293
06:00+21ююв12735 0.0 1010375
09:00+22ю3274100 0.0 1012506
12:00+22ю4473100 0.0 1012454
15:00+23ююз44720 0.0 1012465
18:00+22юз55720 0.0 1011495
21:00+22ююз55755 0.0 1013376
14 мая, пт
пт1400:00+22юз33725 0.0 1013433
03:00+21ю22750 0.0 1012391
06:00+21ю11760 0.0 1013427
09:00+21ю21750 0.0 1014499
12:00+22ююз43750 0.0 1014496
15:00+23юз45670 0.0 1014536
18:00+23ююз45650 0.0 1013542
21:00+22ююз45740 0.0 1014516
15 мая, сб
сб1500:00+22юз33715 0.0 1013498
03:00+21зюз11690 0.0 1012434
06:00+21з12720 0.0 1012485
09:00+21юз22710 0.0 1012485
12:00+22юз44700 0.0 1012550
15:00+22юз66720 0.0 1011671
18:00+22ююз67750 0.0 1010641
21:00+22ююз55760 0.0 1010578